Regional Weather Roundup
Issued by NWS

Home | Current Version | Previous Version | Graphics & Text | Print | Product List | Glossary On
Versions: 1 2 3 4 5 6 7 8 9 10 11 12 13 14 15 16 17 18 19 20 21 22 23 24 25 26 27 28 29 30 31 32 33 34 35 36 37 38 39 40 41 42 43 44 45 46 47 48 49 50
000
ASUS43 KBIS 232002
RWRND

NORTH DAKOTA REGIONAL WEATHER ROUNDUP
NATIONAL WEATHER SERVICE BISMARCK ND
300 PM CDT SUN JUL 23 2017

NOTE: "FAIR" INDICATES FEW OR NO CLOUDS BELOW 12,000 FEET WITH NO
SIGNIFICANT WEATHER AND/OR OBSTRUCTIONS TO VISIBILITY.


NDZ001>003-009>011-017-232100-
NORTHWEST NORTH DAKOTA

CITY           SKY/WX    TMP DP  RH WIND       PRES   REMARKS
WILLISTON      SUNNY     91  50  24 SE7       29.97F
MINOT          SUNNY     83  50  31 SE8       30.00F
MINOT AFB      SUNNY     80  53  38 CALM      29.99F
$$

NDZ018>021-031>035-040>046-232100-
SOUTHWEST NORTH DAKOTA

CITY           SKY/WX    TMP DP  RH WIND       PRES   REMARKS
BISMARCK       SUNNY     83  55  38 CALM      30.02F
DICKINSON      SUNNY     86  50  28 VRB7      30.01F
GARRISON         N/A     80  55  42 SE8       30.01F
HETTINGER ARPT SUNNY     88  46  23 VRB6      30.04F
$$

NDZ004>008-012>016-024-026-027-054-232100-
NORTHEAST NORTH DAKOTA

CITY           SKY/WX    TMP DP  RH WIND       PRES   REMARKS
GRAND FORKS    PTSUNNY   76  61  59 CALM      30.00F
GRND FRKS AFB  PTSUNNY   75  61  62 NW3       30.02S
DEVILS LAKE    SUNNY     75  57  53 VRB5      30.04F
$$

NDZ022-023-025-028>030-036>039-047>053-232100-
SOUTHEAST NORTH DAKOTA

CITY           SKY/WX    TMP DP  RH WIND       PRES   REMARKS
FARGO          PTSUNNY   75  61  61 NW8       30.01F
JAMESTOWN      MOSUNNY   78  58  49 N5        30.03S
$$




USA.gov is the U.S. government's official web portal to all federal, state and local government web resources and services.